TimeCST,TemperatureF,Dew PointF,Humidity,Sea Level PressureIn,VisibilityMPH,Wind Direction,Wind SpeedMPH,Gust SpeedMPH,PrecipitationIn,Events,Conditions,WindDirDegrees,DateUTC
12:53 AM,43.0,30.9,62,30.23,10.0,West,4.6,-,N/A,,Partly Cloudy,260,2013-03-01 06:53:00
1:53 AM,43.0,30.9,62,30.23,10.0,SW,4.6,-,N/A,,Partly Cloudy,220,2013-03-01 07:53:00
2:53 AM,39.9,30.9,70,30.22,10.0,SW,4.6,-,N/A,,Partly Cloudy,230,2013-03-01 08:53:00
3:53 AM,41.0,30.9,67,30.23,10.0,West,4.6,-,N/A,,Partly Cloudy,260,2013-03-01 09:53:00
4:53 AM,41.0,30.9,67,30.25,10.0,Calm,Calm,-,N/A,,Partly Cloudy,0,2013-03-01 10:53:00
5:53 AM,39.0,30.0,70,30.25,10.0,Calm,Calm,-,N/A,,Clear,0,2013-03-01 11:53:00
6:53 AM,42.1,30.0,62,30.26,10.0,Calm,Calm,-,N/A,,Partly Cloudy,0,2013-03-01 12:53:00
7:53 AM,46.9,28.9,50,30.28,10.0,NW,4.6,-,N/A,,Clear,310,2013-03-01 13:53:00
8:53 AM,52.0,27.0,38,30.30,10.0,NNW,5.8,-,N/A,,Clear,340,2013-03-01 14:53:00
9:53 AM,55.0,21.9,28,30.31,10.0,NW,9.2,-,N/A,,Clear,320,2013-03-01 15:53:00
10:53 AM,57.0,21.9,26,30.30,10.0,Calm,Calm,-,N/A,,Clear,0,2013-03-01 16:53:00
11:53 AM,59.0,21.0,23,30.28,10.0,NW,12.7,17.3,N/A,,Clear,310,2013-03-01 17:53:00
12:53 PM,62.1,21.0,21,30.24,10.0,NNW,15.0,19.6,N/A,,Clear,330,2013-03-01 18:53:00
1:53 PM,63.0,24.1,23,30.21,10.0,NW,9.2,17.3,N/A,,Partly Cloudy,320,2013-03-01 19:53:00
2:53 PM,64.0,23.0,21,30.18,10.0,WNW,13.8,17.3,N/A,,Partly Cloudy,300,2013-03-01 20:53:00
3:53 PM,64.9,21.9,19,30.17,10.0,WNW,15.0,20.7,N/A,,Scattered Clouds,290,2013-03-01 21:53:00
4:53 PM,64.9,21.9,19,30.16,10.0,WNW,15.0,18.4,N/A,,Scattered Clouds,290,2013-03-01 22:53:00
5:53 PM,63.0,21.9,21,30.17,10.0,WNW,15.0,21.9,N/A,,Scattered Clouds,300,2013-03-01 23:53:00
6:53 PM,59.0,26.1,28,30.18,10.0,North,10.4,-,N/A,,Scattered Clouds,360,2013-03-02 00:53:00
7:53 PM,59.0,26.1,28,30.21,10.0,North,18.4,24.2,N/A,,Mostly Cloudy,360,2013-03-02 01:53:00
8:53 PM,55.9,28.0,34,30.22,10.0,North,9.2,-,N/A,,Scattered Clouds,360,2013-03-02 02:53:00
9:53 PM,53.1,28.9,40,30.23,10.0,NE,5.8,-,N/A,,Scattered Clouds,40,2013-03-02 03:53:00
10:53 PM,53.1,30.9,43,30.25,10.0,NE,6.9,-,N/A,,Mostly Cloudy,40,2013-03-02 04:53:00
11:53 PM,53.1,30.9,43,30.27,10.0,WNW,6.9,-,N/A,,Mostly Cloudy,290,2013-03-02 05:53:00